Auburn, IN

4:47 AM EDT on May 30, 2017 (GMT -0400)
Auburn

Weather History for KGWB - December, 2012

Change the Weather History Date:

Tuesday, December 11, 2012

  Actual Average (KFWA) Record (KFWA)
Temperature  
Mean Temperature 28 °F -  
Max Temperature 33 °F 37 °F 63 °F (1949)
Min Temperature 24 °F 23 °F -11 °F (1977)
Degree Days  
Heating Degree Days 36    
Moisture  
Dew Point 25 °F    
Average Humidity 80    
Maximum Humidity 93    
Minimum Humidity 64    
Precipitation  
Precipitation 0.07 in - - ()
Sea Level Pressure  
Sea Level Pressure 30.04 in    
Wind  
Wind Speed 4 mph (SW)    
Max Wind Speed 12 mph    
Max Gust Speed 18 mph    
Visibility 8 miles    
Events Snow    
Averages and records for this station are not official NWS values.
T = Trace of Precipitation, MM = Missing Value Source: NWS Daily Summary

Daily Weather History Graph

Daily Weather History Graph

Search for Another Location

Airport or City:

Trip Planner

Search our weather history database for the weather conditions in past years. The results will help you decide how hot, cold, wet, or windy it might be!

Date:

Astronomy

Dec. 11, 2012 Rise Set
Actual Time 7:56 AM EST 5:11 PM EST
Civil Twilight 7:25 AM EST 5:42 PM EST
Nautical Twilight 6:50 AM EST 6:17 PM EST
Astronomical Twilight 6:16 AM EST 6:50 PM EST
Moon 5:49 AM EST (12/11) 3:49 PM EST (12/11)
Length of Visible Light 10h 17m
Length of Day
9h 14m
Waning Crescent, 4% of the Moon is Illuminated
Dec 11
Waning Crescent
Dec 13
New
Dec 20
First Quarter
Dec 28
Full
Jan 4
Last Quarter

Hourly Weather History & Observations

Time (EST) Temp. Windchill Dew Point Humidity Pressure Visibility Wind Dir Wind Speed Gust Speed Precip Events Conditions
12:15 AM 32.0 °F - 30.2 °F 93% 29.89 in 1.0 mi Calm Calm - 0.02 in Snow Light Snow
12:35 AM 32.0 °F 28.7 °F 30.2 °F 93% 29.89 in 1.8 mi NNW 3.5 mph - 0.03 in Snow Light Snow
12:55 AM 32.0 °F - 30.2 °F 93% 29.90 in 2.5 mi Calm Calm - 0.05 in Snow Light Snow
1:35 AM 32.0 °F - 30.2 °F 93% 29.89 in 7.0 mi Calm Calm - 0.01 in Snow Light Snow
1:55 AM 32.0 °F - 30.2 °F 93% 29.89 in 1.2 mi Calm Calm - 0.01 in Snow Snow
2:15 AM 32.0 °F - 30.2 °F 93% 29.90 in 5.0 mi Calm Calm - 0.01 in Snow Light Snow
2:35 AM 32.0 °F - 30.2 °F 93% 29.90 in 4.0 mi Calm Calm - 0.01 in Snow Light Snow
2:55 AM 32.0 °F - 30.2 °F 93% 29.91 in 7.0 mi Calm Calm - 0.01 in Snow Light Snow
3:15 AM 32.0 °F - 30.2 °F 93% 29.92 in 5.0 mi Calm Calm - N/A Snow Light Snow
3:35 AM 32.0 °F 28.7 °F 30.2 °F 93% 29.93 in 7.0 mi West 3.5 mph - N/A Snow Light Snow
3:55 AM 32.0 °F - 30.2 °F 93% 29.93 in 7.0 mi Calm Calm - N/A   Overcast
4:15 AM 32.0 °F - 30.2 °F 93% 29.94 in 7.0 mi Calm Calm - N/A   Overcast
4:35 AM 32.0 °F - 30.2 °F 93% 29.95 in 7.0 mi Calm Calm - N/A   Overcast
4:55 AM 32.0 °F 28.7 °F 30.2 °F 93% 29.95 in 7.0 mi West 3.5 mph - N/A   Overcast
5:15 AM 32.0 °F 27.5 °F 30.2 °F 93% 29.95 in 7.0 mi WSW 4.6 mph - N/A   Overcast
5:35 AM 32.0 °F 25.6 °F 30.2 °F 93% 29.95 in 7.0 mi West 6.9 mph - N/A Snow Light Snow
5:55 AM 32.0 °F 25.6 °F 30.2 °F 93% 29.96 in 5.0 mi West 6.9 mph - N/A Snow Light Snow
6:15 AM 32.0 °F 25.6 °F 30.2 °F 93% 29.97 in 5.0 mi WSW 6.9 mph - N/A Snow Light Snow
6:35 AM 32.0 °F 25.6 °F 28.4 °F 87% 29.98 in 5.0 mi West 6.9 mph - N/A Snow Light Snow
6:55 AM 30.2 °F 23.4 °F 28.4 °F 93% 29.98 in 7.0 mi West 6.9 mph - N/A   Mostly Cloudy
7:15 AM 30.2 °F 25.4 °F 26.6 °F 86% 29.99 in 10.0 mi WSW 4.6 mph - N/A   Scattered Clouds
7:35 AM 28.4 °F 23.3 °F 26.6 °F 93% 30.00 in 7.0 mi SW 4.6 mph - N/A   Clear
7:55 AM 28.4 °F 23.3 °F 26.6 °F 93% 30.01 in 7.0 mi WSW 4.6 mph - N/A   Clear
8:15 AM 28.4 °F 23.3 °F 24.8 °F 86% 30.02 in 5.0 mi SW 4.6 mph - N/A   Clear
8:35 AM 28.4 °F 22.2 °F 26.6 °F 93% 30.03 in 5.0 mi WSW 5.8 mph - N/A   Scattered Clouds
8:55 AM 30.2 °F 23.4 °F 26.6 °F 86% 30.03 in 5.0 mi WSW 6.9 mph - N/A   Mostly Cloudy
9:55 AM 30.2 °F 22.6 °F 24.8 °F 80% 30.05 in 10.0 mi SW 8.1 mph - N/A   Mostly Cloudy
10:15 AM 30.2 °F 22.6 °F 24.8 °F 80% 30.05 in 10.0 mi SW 8.1 mph - N/A   Mostly Cloudy
10:55 AM 32.0 °F 25.6 °F 26.6 °F 80% 30.06 in 10.0 mi SSW 6.9 mph - N/A   Mostly Cloudy
11:15 AM 32.0 °F 23.0 °F 24.8 °F 75% 30.07 in 10.0 mi WSW 11.5 mph - N/A   Overcast
11:35 AM 32.0 °F 24.2 °F 21.2 °F 64% 30.06 in 10.0 mi SW 9.2 mph - N/A   Mostly Cloudy
11:55 AM 33.8 °F 28.6 °F 23.0 °F 65% 30.06 in 10.0 mi SW 5.8 mph - N/A   Mostly Cloudy
12:15 PM 32.0 °F 25.6 °F 23.0 °F 69% 30.06 in 10.0 mi SSW 6.9 mph - N/A   Overcast
12:35 PM 32.0 °F 24.2 °F 23.0 °F 69% 30.06 in 10.0 mi SW 9.2 mph - N/A   Mostly Cloudy
12:55 PM 32.0 °F 28.7 °F 26.6 °F 80% 30.06 in 7.0 mi SW 3.5 mph - N/A   Overcast
1:15 PM 32.0 °F 23.0 °F 23.0 °F 69% 30.07 in 10.0 mi SW 11.5 mph 17.3 mph N/A   Overcast
1:35 PM 32.0 °F 24.2 °F 21.2 °F 64% 30.06 in 10.0 mi WSW 9.2 mph - N/A   Mostly Cloudy
1:55 PM 32.0 °F 26.4 °F 24.8 °F 75% 30.06 in 7.0 mi SSW 5.8 mph - N/A   Overcast
2:15 PM 32.0 °F 24.2 °F 23.0 °F 69% 30.05 in 10.0 mi SSW 9.2 mph - N/A   Mostly Cloudy
2:35 PM 32.0 °F 24.8 °F 21.2 °F 64% 30.06 in 10.0 mi SW 8.1 mph - N/A   Mostly Cloudy
2:55 PM 32.0 °F 24.8 °F 21.2 °F 64% 30.06 in 10.0 mi SW 8.1 mph 18.4 mph N/A   Mostly Cloudy
3:15 PM 32.0 °F 27.5 °F 21.2 °F 64% 30.06 in 10.0 mi SW 4.6 mph - N/A   Scattered Clouds
3:35 PM 32.0 °F 25.6 °F 21.2 °F 64% 30.07 in 10.0 mi SW 6.9 mph - N/A   Mostly Cloudy
3:55 PM 32.0 °F 24.2 °F 21.2 °F 64% 30.06 in 10.0 mi SSW 9.2 mph 16.1 mph N/A   Scattered Clouds
4:15 PM 32.0 °F 24.8 °F 21.2 °F 64% 30.07 in 10.0 mi SSW 8.1 mph - N/A   Scattered Clouds
4:35 PM 32.0 °F 24.8 °F 21.2 °F 64% 30.07 in 10.0 mi SW 8.1 mph - N/A   Scattered Clouds
4:55 PM 32.0 °F 25.6 °F 21.2 °F 64% 30.08 in 10.0 mi SSW 6.9 mph - N/A   Scattered Clouds
5:15 PM 32.0 °F 24.2 °F 21.2 °F 64% 30.08 in 10.0 mi SSW 9.2 mph - N/A   Scattered Clouds
5:55 PM 30.2 °F 25.4 °F 21.2 °F 69% 30.10 in 10.0 mi SSW 4.6 mph - N/A   Clear
6:15 PM 30.2 °F 25.4 °F 21.2 °F 69% 30.10 in 10.0 mi SSW 4.6 mph - N/A   Clear
6:35 PM 30.2 °F 24.3 °F 21.2 °F 69% 30.10 in 10.0 mi SSW 5.8 mph - N/A   Clear
6:55 PM 30.2 °F 25.4 °F 21.2 °F 69% 30.10 in 10.0 mi SSW 4.6 mph - N/A   Clear
7:15 PM 30.2 °F 25.4 °F 21.2 °F 69% 30.11 in 10.0 mi SSW 4.6 mph - N/A   Clear
7:35 PM 30.2 °F 24.3 °F 21.2 °F 69% 30.11 in 10.0 mi South 5.8 mph - N/A   Clear
7:55 PM 30.2 °F 24.3 °F 23.0 °F 75% 30.11 in 10.0 mi South 5.8 mph - N/A   Clear
8:15 PM 30.2 °F 26.7 °F 23.0 °F 75% 30.11 in 10.0 mi SSW 3.5 mph - N/A   Clear
8:55 PM 28.4 °F - 23.0 °F 80% 30.13 in 10.0 mi Calm Calm - N/A   Clear
9:15 PM 28.4 °F 23.3 °F 23.0 °F 80% 30.14 in 10.0 mi SSW 4.6 mph - N/A   Clear
9:35 PM 28.4 °F 24.6 °F 23.0 °F 80% 30.14 in 10.0 mi SSW 3.5 mph - N/A   Clear
9:55 PM 28.4 °F 24.6 °F 23.0 °F 80% 30.15 in 10.0 mi SSW 3.5 mph - N/A   Clear
10:15 PM 28.4 °F - 23.0 °F 80% 30.15 in 10.0 mi Calm Calm - N/A   Clear
10:35 PM 26.6 °F 22.6 °F 21.2 °F 80% 30.16 in 10.0 mi SSW 3.5 mph - N/A   Clear
10:55 PM 26.6 °F - 21.2 °F 80% 30.16 in 10.0 mi Calm Calm - N/A   Clear
11:15 PM 26.6 °F - 23.0 °F 86% 30.17 in 10.0 mi Calm Calm - N/A   Clear
11:35 PM 24.8 °F 20.5 °F 21.2 °F 86% 30.18 in 7.0 mi South 3.5 mph - N/A   Clear
11:55 PM 24.8 °F 19.1 °F 23.0 °F 93% 30.19 in 10.0 mi South 4.6 mph - N/A   Clear